Estación meteorológica de Cercs - La Baells (Berguedà, Cercs)

Consulta los datos en tiempo real de la estación meteorológica de Cercs - La Baells





Hora UTC 20:45
Temperatura 24.7 ºC
Humedad 67.7 %
Presión 1022.2 hPa
Pluja 0.0 mm
Velocidad viento 0.1 km/h
Dirección viento ESE

Datos diarios 2026-09-04



Hora UTC (invierno +1h; verano +2h)
DADES NO VALIDADES
Temperatura (ºC) Humedad (%) Presión (hPa) Velocidad viento (km/h) Precipitación (mm)
Hora UTC Aire Humedad Presión Vel. Dir. Vel. Max Dir. Intent. máx 5 min.
00:05 20.3 80.1 1022.2 0.2 S 0.2 SSW 0.0
00:10 20.1 81.2 1022.2 0.1 SSW 0.2 SSW 0.0
00:15 20.0 81.4 1022.2 0.0 SSW 0.2 SSW 0.0
00:20 19.8 82.3 1022.2 0.2 NW 0.2 SSW 0.0
00:25 19.7 82.4 1022.2 0.2 NNW 0.2 SSW 0.0
00:30 19.7 83.1 1022.2 0.2 S 0.2 SSW 0.0
00:35 19.7 83.2 1022.2 0.2 SSE 0.2 SSW 0.0
00:40 19.5 82.9 1022.2 0.1 W 0.2 SSW 0.0
00:45 19.5 82.8 1022.2 0.0 W 0.2 SSW 0.0
00:50 19.5 81.9 1022.2 0.5 NW 0.5 NW 0.0
00:55 19.5 81.7 1022.2 0.6 NW 0.6 NW 0.0
01:00 19.5 82.8 1022.2 0.1 E 0.6 NW 0.0
01:05 19.5 83.0 1022.2 0.0 NE 0.6 NW 0.0
01:10 19.4 84.4 1022.2 0.1 SE 0.6 NW 0.0
01:15 19.4 84.7 1022.2 0.1 SSE 0.6 NW 0.0
01:20 19.2 85.3 1022.2 0.1 SE 0.6 NW 0.0
01:25 19.1 85.4 1022.2 0.1 SE 0.6 NW 0.0
01:30 19.1 84.8 1022.2 0.1 WNW 0.6 NW 0.0
01:35 19.0 84.7 1022.2 0.1 NNW 0.6 NW 0.0
01:40 19.0 85.3 1022.2 0.1 NNW 0.6 NW 0.0
01:45 19.0 85.4 1022.2 0.1 NNW 0.6 NW 0.0
01:50 18.9 84.3 1022.2 0.2 NNW 0.6 NW 0.0
01:55 18.9 84.1 1022.2 0.2 NNW 0.6 NW 0.0
01:55 18.9 84.1 1022.2 0.2 NNW 0.6 NW 0.0
01:55 18.9 84.1 1022.2 0.2 NNW 0.6 NW 0.0
02:15 18.8 84.2 1022.2 0.1 W 0.6 NW 0.0
02:20 18.8 84.1 1022.2 0.1 SSW 0.6 NW 0.0
02:25 18.8 84.1 1022.2 0.1 S 0.6 NW 0.0
02:30 18.7 84.4 1022.2 0.1 SE 0.6 NW 0.0
02:35 18.6 84.5 1022.2 0.1 SE 0.6 NW 0.0
02:40 18.5 84.7 1022.2 0.0 WSW 0.6 NW 0.0
02:45 18.5 84.7 1022.2 0.0 WSW 0.6 NW 0.0
02:50 18.4 84.4 1022.2 0.1 WNW 0.6 NW 0.0
02:55 18.4 84.3 1022.2 0.1 WNW 0.6 NW 0.0
03:00 18.4 85.1 1022.2 0.1 NNW 0.6 NW 0.0
03:05 18.4 85.2 1022.2 0.1 NNW 0.6 NW 0.0
03:10 18.4 86.4 1022.2 0.1 SSW 0.6 NW 0.0
03:15 18.4 86.7 1022.2 0.1 S 0.6 NW 0.0
03:20 18.3 86.6 1022.2 0.2 NW 0.6 NW 0.0
03:25 18.3 86.6 1022.2 0.2 NNW 0.6 NW 0.0
03:30 18.3 85.0 1022.2 0.1 NNW 0.6 NW 0.0
03:35 18.3 84.6 1022.2 0.1 NNW 0.6 NW 0.0
03:40 18.4 83.7 1021.3 0.4 NW 0.6 NW 0.0
03:45 18.4 83.5 1021.2 0.5 NW 0.6 NW 0.0
03:50 18.4 82.8 1021.2 0.2 NNW 0.6 NW 0.0
03:55 18.3 82.7 1021.2 0.2 NNW 0.6 NW 0.0
04:00 18.4 82.1 1021.2 0.5 NW 0.6 NW 0.0
04:05 18.4 82.0 1021.2 0.5 NW 0.6 NW 0.0
04:10 18.4 81.0 1021.2 0.6 NNW 0.6 NW 0.0
04:15 18.4 80.8 1021.2 0.6 NNW 0.6 NNW 0.0
04:20 18.4 81.8 1021.2 0.7 NNW 0.7 NNW 0.0
04:25 18.4 82.0 1021.2 0.8 NNW 0.8 NNW 0.0
04:30 18.4 81.8 1021.2 0.6 NNW 0.8 NNW 0.0
04:35 18.4 81.7 1021.2 0.6 NNW 0.8 NNW 0.0
04:40 18.4 81.9 1021.2 0.6 NNW 0.8 NNW 0.0
04:45 18.4 81.9 1021.2 0.6 NNW 0.8 NNW 0.0
04:50 18.3 83.1 1021.2 0.4 NNW 0.8 NNW 0.0
04:55 18.3 83.4 1021.2 0.4 NNW 0.8 NNW 0.0
05:00 18.1 84.8 1021.2 0.3 NNW 0.8 NNW 0.0
05:05 18.0 85.1 1021.2 0.3 NNW 0.8 NNW 0.0
05:10 18.0 85.3 1021.2 0.7 NNW 0.8 NNW 0.0
05:15 18.0 85.3 1021.2 0.8 NNW 0.8 NNW 0.0
05:20 18.0 83.9 1021.2 1.2 NNW 1.2 NNW 0.0
05:25 18.0 83.7 1021.2 1.3 NNW 1.3 NNW 0.0
05:30 18.0 82.3 1021.2 0.7 NNW 1.3 NNW 0.0
05:35 18.0 82.0 1021.2 0.5 NNW 1.3 NNW 0.0
05:40 18.0 82.6 1021.2 0.3 NNW 1.3 NNW 0.0
05:45 18.0 82.7 1021.2 0.3 NNW 1.3 NNW 0.0
05:50 17.9 82.8 1021.2 0.4 NNW 1.3 NNW 0.0
05:55 17.9 82.8 1021.2 0.4 NW 1.3 NNW 0.0
06:00 17.8 83.3 1021.2 0.4 NNW 1.3 NNW 0.0
06:00 17.8 83.3 1021.2 0.4 NNW 1.3 NNW 0.0
06:10 17.8 83.3 1021.2 0.5 NNW 1.3 NNW 0.0
06:15 17.9 83.3 1021.2 0.5 NNW 1.3 NNW 0.0
06:20 17.9 84.2 1021.2 0.3 NNW 1.3 NNW 0.0
06:25 17.9 84.4 1021.2 0.3 NNW 1.3 NNW 0.0
06:30 18.1 82.9 1021.2 0.1 NW 1.3 NNW 0.0
06:35 18.2 82.5 1021.2 0.1 NW 1.3 NNW 0.0
06:40 18.6 78.5 1021.2 0.2 NNW 1.3 NNW 0.0
06:45 18.6 77.7 1021.2 0.3 NNW 1.3 NNW 0.0
06:50 19.1 74.9 1021.2 0.4 NW 1.3 NNW 0.0
06:55 19.2 74.3 1021.2 0.4 NW 1.3 NNW 0.0
07:00 19.6 72.5 1021.2 0.2 WNW 1.3 NNW 0.0
07:05 19.7 72.2 1021.2 0.2 WNW 1.3 NNW 0.0
07:10 20.0 70.5 1021.2 0.2 WNW 1.3 NNW 0.0
07:15 20.1 70.1 1021.2 0.2 WNW 1.3 NNW 0.0
07:20 20.4 70.3 1021.2 0.2 NW 1.3 NNW 0.0
07:25 20.5 70.3 1021.2 0.2 NW 1.3 NNW 0.0
07:30 20.8 68.0 1021.2 0.7 NW 1.3 NNW 0.0
07:35 20.8 67.7 1021.2 0.8 NW 1.3 NNW 0.0
07:40 21.4 66.1 1021.2 0.3 NNW 1.3 NNW 0.0
07:45 21.5 65.8 1021.2 0.3 NNW 1.3 NNW 0.0
07:50 22.4 63.2 1021.2 0.1 SSE 1.3 NNW 0.0
07:55 22.5 62.8 1021.2 0.0 SE 1.3 NNW 0.0
08:00 23.4 60.4 1021.2 0.0 WSW 1.3 NNW 0.0
08:05 23.6 59.9 1021.2 0.0 W 1.3 NNW 0.0
08:10 23.9 58.9 1021.2 0.1 SSW 1.3 NNW 0.0
08:15 23.9 58.8 1021.2 0.2 SSW 1.3 NNW 0.0
08:20 24.8 57.0 1021.2 0.2 WSW 1.3 NNW 0.0
08:25 24.9 56.7 1021.2 0.2 WSW 1.3 NNW 0.0
08:30 25.8 54.5 1021.2 0.2 SW 1.3 NNW 0.0
08:35 25.9 54.1 1021.2 0.2 SW 1.3 NNW 0.0
08:40 26.3 52.8 1021.2 0.1 SW 1.3 NNW 0.0
08:45 26.3 52.5 1021.2 0.1 SW 1.3 NNW 0.0
08:50 26.3 52.7 1021.2 0.2 SSW 1.3 NNW 0.0
08:55 26.3 52.7 1021.2 0.2 SSW 1.3 NNW 0.0
09:00 26.4 50.9 1021.2 0.1 SSW 1.3 NNW 0.0
09:05 26.4 50.5 1021.2 0.1 SSW 1.3 NNW 0.0
09:10 26.8 49.7 1021.2 0.1 SSW 1.3 NNW 0.0
09:15 26.8 49.6 1021.2 0.1 SSW 1.3 NNW 0.0
09:20 27.6 49.5 1021.2 0.2 SW 1.3 NNW 0.0
09:25 27.7 49.5 1021.2 0.2 SW 1.3 NNW 0.0
09:30 27.9 50.7 1021.2 0.1 S 1.3 NNW 0.0
09:35 27.9 50.8 1021.2 0.1 S 1.3 NNW 0.0
09:40 28.1 51.2 1021.2 0.1 SW 1.3 NNW 0.0
09:45 28.2 51.3 1021.2 0.1 SW 1.3 NNW 0.0
09:50 28.6 50.7 1021.2 0.5 ESE 1.3 NNW 0.0
09:55 28.6 50.6 1021.2 0.6 E 1.3 NNW 0.0
10:00 29.1 49.6 1021.2 1.1 E 1.3 NNW 0.0
10:05 29.2 49.4 1021.2 1.2 E 1.3 NNW 0.0
10:10 29.0 49.4 1021.2 1.3 ENE 1.3 NNW 0.0
10:15 28.9 49.5 1021.2 1.3 ENE 1.3 NNW 0.0
10:20 29.0 48.3 1021.2 2.7 ENE 2.7 ENE 0.0
10:25 29.0 48.1 1021.2 3.0 ENE 3.0 ENE 0.0
10:30 29.1 47.1 1021.2 1.8 ENE 3.0 ENE 0.0
10:35 29.1 46.9 1021.2 1.6 ENE 3.0 ENE 0.0
10:40 29.9 44.3 1020.4 1.2 ENE 3.0 ENE 0.0
10:45 30.1 43.7 1020.2 1.1 ENE 3.0 ENE 0.0
10:50 30.4 42.4 1020.2 1.1 E 3.0 ENE 0.0
10:55 30.5 42.1 1020.2 1.1 E 3.0 ENE 0.0
11:00 31.1 40.9 1020.2 1.0 E 3.0 ENE 0.0
11:05 31.3 40.6 1020.2 1.0 E 3.0 ENE 0.0
11:10 31.4 40.7 1020.2 1.7 E 3.0 ENE 0.0
11:15 31.4 40.7 1020.2 1.8 E 3.0 ENE 0.0
11:20 31.9 40.2 1020.2 1.2 E 3.0 ENE 0.0
11:25 32.0 40.1 1020.2 1.1 ENE 3.0 ENE 0.0
11:30 31.5 40.3 1020.2 0.7 E 3.0 ENE 0.0
11:35 31.5 40.3 1020.2 0.6 E 3.0 ENE 0.0
11:40 31.8 39.1 1020.2 0.2 ENE 3.0 ENE 0.0
11:45 31.9 38.8 1020.2 0.1 ENE 3.0 ENE 0.0
11:50 32.3 37.5 1020.2 1.0 ENE 3.0 ENE 0.0
11:55 32.4 37.2 1020.2 1.1 E 3.0 ENE 0.0
12:00 32.6 36.1 1020.2 1.5 ENE 3.0 ENE 0.0
12:05 32.6 35.8 1020.2 1.6 ENE 3.0 ENE 0.0
12:10 32.4 34.9 1020.2 2.2 ENE 3.0 ENE 0.0
12:15 32.4 34.7 1020.2 2.4 ENE 3.0 ENE 0.0
12:20 33.2 33.0 1020.2 1.3 ESE 3.0 ENE 0.0
12:25 33.3 32.6 1020.2 1.0 ESE 3.0 ENE 0.0
12:30 33.3 31.2 1020.2 1.2 SE 3.0 ENE 0.0
12:35 33.3 30.9 1020.2 1.2 SE 3.0 ENE 0.0
12:40 34.0 29.6 1020.2 0.6 E 3.0 ENE 0.0
12:45 34.2 29.3 1020.2 0.5 ENE 3.0 ENE 0.0
12:50 34.8 27.2 1019.4 0.4 SE 3.0 ENE 0.0
12:55 34.9 26.8 1019.2 0.4 SE 3.0 ENE 0.0
13:00 35.3 25.2 1019.2 0.6 E 3.0 ENE 0.0
13:05 35.4 24.8 1019.2 0.6 ENE 3.0 ENE 0.0
13:10 34.7 24.4 1019.2 0.7 ENE 3.0 ENE 0.0
13:15 34.6 24.3 1019.2 0.7 ENE 3.0 ENE 0.0
13:20 34.8 23.2 1019.2 1.6 E 3.0 ENE 0.0
13:25 34.9 22.9 1019.2 1.8 E 3.0 ENE 0.0
13:30 34.7 23.1 1019.2 0.6 NE 3.0 ENE 0.0
13:35 34.7 23.1 1019.2 0.4 NE 3.0 ENE 0.0
13:40 34.8 22.6 1019.2 0.3 E 3.0 ENE 0.0
13:45 34.9 22.5 1019.2 0.3 E 3.0 ENE 0.0
13:50 34.9 21.2 1019.2 1.2 E 3.0 ENE 0.0
13:55 34.9 21.0 1019.2 1.3 E 3.0 ENE 0.0
14:00 34.8 21.2 1019.2 1.5 E 3.0 ENE 0.0
14:05 34.7 21.3 1019.2 1.5 E 3.0 ENE 0.0
14:10 34.9 21.4 1019.2 0.4 E 3.0 ENE 0.0
14:15 34.9 21.4 1019.2 0.1 E 3.0 ENE 0.0
14:20 35.4 21.3 1019.2 0.6 E 3.0 ENE 0.0
14:25 35.5 21.2 1019.2 0.7 E 3.0 ENE 0.0
14:30 36.0 21.1 1019.2 0.7 S 3.0 ENE 0.0
14:35 36.1 21.1 1019.2 0.7 SSW 3.0 ENE 0.0
14:40 36.2 20.7 1019.2 0.6 SSW 3.0 ENE 0.0
14:45 36.2 20.7 1019.2 0.6 SSW 3.0 ENE 0.0
14:50 36.7 20.7 1019.2 0.8 SSW 3.0 ENE 0.0
14:55 36.8 20.7 1019.2 0.9 SSW 3.0 ENE 0.0
15:00 36.8 20.2 1019.2 0.7 SSW 3.0 ENE 0.0
15:05 36.8 20.1 1019.2 0.6 SSW 3.0 ENE 0.0
15:10 37.0 20.3 1019.2 1.5 S 3.0 ENE 0.0
15:15 37.0 20.3 1019.2 1.7 S 3.0 ENE 0.0
15:20 37.0 20.4 1019.2 1.8 S 3.0 ENE 0.0
15:25 37.0 20.4 1019.2 1.9 S 3.0 ENE 0.0
15:30 36.8 20.5 1019.2 0.4 SW 3.0 ENE 0.0
15:35 36.8 20.5 1019.2 0.1 SW 3.0 ENE 0.0
15:40 36.2 21.2 1019.2 0.9 SSE 3.0 ENE 0.0
15:45 36.2 21.3 1019.2 1.0 SE 3.0 ENE 0.0
15:50 35.9 21.3 1018.4 0.6 S 3.0 ENE 0.0
15:55 35.8 21.3 1018.2 0.6 SSW 3.0 ENE 0.0
16:00 36.3 21.4 1018.2 1.7 SSW 3.0 ENE 0.0
16:05 36.4 21.4 1018.2 1.9 SSW 3.0 ENE 0.0
16:10 36.5 21.4 1018.2 1.7 SSW 3.0 ENE 0.0
16:15 36.5 21.5 1018.2 1.6 SSW 3.0 ENE 0.0
16:20 35.9 22.2 1018.2 0.5 ESE 3.0 ENE 0.0
16:25 35.8 22.4 1018.2 0.3 ESE 3.0 ENE 0.0
16:30 35.0 22.5 1018.2 1.5 ESE 3.0 ENE 0.0
16:35 34.8 22.6 1018.2 1.7 ESE 3.0 ENE 0.0
16:40 34.7 24.2 1018.2 0.5 ENE 3.0 ENE 0.0
16:45 34.6 24.4 1018.2 0.3 ENE 3.0 ENE 0.0
16:50 34.8 24.3 1018.2 0.3 SSE 3.0 ENE 0.0
16:55 34.9 24.2 1018.2 0.3 S 3.0 ENE 0.0
17:00 34.8 24.9 1019.1 0.1 SW 3.0 ENE 0.0
17:05 34.8 25.0 1019.2 0.0 SW 3.0 ENE 0.0
17:10 34.4 26.9 1019.2 1.6 SSW 3.0 ENE 0.0
17:15 34.3 27.4 1019.2 1.9 SSW 3.0 ENE 0.0
17:20 33.2 31.6 1019.2 0.9 SSE 3.0 ENE 0.0
17:25 33.1 32.3 1019.2 0.7 SSE 3.0 ENE 0.0
17:30 32.4 37.7 1019.2 0.4 SSE 3.0 ENE 0.0
17:35 32.2 38.8 1019.2 0.3 SSE 3.0 ENE 0.0
17:40 31.9 40.7 1019.2 0.7 SSE 3.0 ENE 0.0
17:45 31.8 41.0 1019.2 0.8 SSE 3.0 ENE 0.0
17:50 31.6 42.0 1019.2 2.5 S 3.0 ENE 0.0
17:55 31.5 42.2 1019.2 2.9 S 3.0 ENE 0.0
18:00 31.3 43.1 1020.1 1.4 SSW 3.0 ENE 0.0
18:05 31.2 43.2 1020.2 1.2 SSW 3.0 ENE 0.0
18:10 30.9 43.9 1020.2 1.5 SSW 3.0 ENE 0.0
18:15 30.9 44.0 1020.2 1.6 SSW 3.0 ENE 0.0
18:20 30.5 45.3 1020.2 2.8 S 3.0 ENE 0.0
18:25 30.4 45.6 1020.2 3.0 S 3.0 ENE 0.0
18:30 30.2 46.2 1020.2 0.8 SSW 3.0 ENE 0.0
18:35 30.1 46.4 1020.2 0.4 SSW 3.0 ENE 0.0
18:40 29.9 47.1 1020.2 0.4 SSW 3.0 ENE 0.0
18:45 29.9 47.2 1020.2 0.4 SSW 3.0 ENE 0.0
18:50 29.7 48.0 1020.2 0.1 WNW 3.0 ENE 0.0
18:55 29.6 48.2 1020.2 0.1 NW 3.0 ENE 0.0
19:00 29.4 49.0 1020.2 0.1 NE 3.0 ENE 0.0
19:05 29.4 49.2 1020.2 0.1 N 3.0 ENE 0.0
19:10 29.0 50.5 1021.0 0.1 SW 3.0 ENE 0.0
19:15 28.9 50.8 1021.2 0.1 W 3.0 ENE 0.0
19:20 28.3 53.0 1021.2 0.1 W 3.0 ENE 0.0
19:25 28.2 53.4 1021.2 0.1 W 3.0 ENE 0.0
19:30 27.6 55.7 1021.2 0.1 E 3.0 ENE 0.0
19:35 27.5 56.2 1021.2 0.1 ENE 3.0 ENE 0.0
19:40 26.9 57.6 1021.2 0.1 NNE 3.0 ENE 0.0
19:45 26.8 57.8 1021.2 0.1 N 3.0 ENE 0.0
19:50 26.7 58.1 1021.2 0.5 WSW 3.0 ENE 0.0
19:55 26.7 58.2 1021.2 0.6 WNW 3.0 ENE 0.0
20:00 26.3 60.1 1021.2 1.4 NNW 3.0 ENE 0.0
20:05 26.2 60.5 1021.2 1.5 NNW 3.0 ENE 0.0
20:10 25.6 63.9 1022.0 1.0 NNW 3.0 ENE 0.0
20:15 25.5 64.7 1022.2 0.9 NNW 3.0 ENE 0.0
20:20 25.2 65.7 1022.2 0.7 NNW 3.0 ENE 0.0
20:25 25.1 65.9 1022.2 0.7 NNW 3.0 ENE 0.0
20:30 24.9 67.3 1022.2 0.7 NNW 3.0 ENE 0.0
20:35 24.8 67.7 1022.2 0.7 NNW 3.0 ENE 0.0
20:40 24.7 67.7 1022.2 0.2 SSE 3.0 ENE 0.0
20:45 24.7 67.7 1022.2 0.1 ESE 3.0 ENE 0.0
Máxima 37.0 86.7 1022.2 3.0 S 3.0 ENE 0.0
Mínima 17.8 20.1 1018.2
Total 0.0